Location: Newark
(45.4041°N, 17.9426°E)
Time: 16:20:24
(UTC+00:00)

Envisat - Pass Details

Date: 02 October 2019
Orbit: 764 x 766 km, 98.1° (Epoch: 20 October)

Event Time Altitude Azimuth Distance (km) Brightness Sun altitude
Rises 16:56:57 0° 169° (S) 3,219 6.1 -6.0°
Reaches altitude 10° 16:59:15 10° 171° (S) 2,297 5.4 -6.4°
Maximum altitude 17:04:19 76° 257° (WSW) 792 3.3 -7.3°
Drops below altitude 10° 17:09:26 10° 344° (NNW) 2,313 5.8 -8.2°
Sets 17:11:45 0° 346° (NNW) 3,243 6.5 -8.6°
